Retour au catalogue

USA 162

ActifMilitaireGEO
NORAD 26948·PAYLOAD·🇺🇸 United States

Lancé Oct 11, 2001 depuis Cape Canaveral Space Force Station

Loading…

TLE

FraisSource: Mike McCants

Époque: Sep 14, 2026, 10:35 UTC

1 26948U 01046A   26257.44158329  .00000000  00000-0  00000-0 0    01
2 26948  14.1350  25.8702 0009798 215.6785 144.2660  1.00270000  8670

Suivez USA 162 en temps réel avec AllMySat

Download on the App Store